Hourly Weather Ryabinovka

Today, 16 April, Friday

Time Temperature Precipitation Wind Pressure Humidity
00:00 +9°C° 0 mm 2 mps 745 mmHg 90%
01:00 +8°C° 0 mm 2 mps 745 mmHg 89%
02:00 +7°C° 0 mm 2 mps 745 mmHg 87%
03:00 +7°C° 0 mm 2 mps 745 mmHg 85%
04:00 +7°C° 0 mm 2 mps 745 mmHg 86%
05:00 +6°C° 0 mm 2 mps 745 mmHg 86%
06:00 +7°C° 0 mm 1 mps 746 mmHg 87%
07:00 +8°C° 0 mm 2 mps 746 mmHg 80%
08:00 +9°C° 0 mm 2 mps 746 mmHg 74%
09:00 +12°C° 0 mm 2 mps 746 mmHg 68%
10:00 +12°C° 0 mm 3 mps 746 mmHg 63%
11:00 +13°C° 0 mm 3 mps 746 mmHg 58%
12:00 +15°C° 0 mm 4 mps 746 mmHg 52%
13:00 +14°C° 0 mm 4 mps 746 mmHg 56%
14:00 +14°C° 0 mm 5 mps 746 mmHg 59%
15:00 +13°C° 0 mm 5 mps 746 mmHg 63%
16:00 +13°C° 0.3 mm 5 mps 746 mmHg 68%
17:00 +12°C° 0.3 mm 4 mps 746 mmHg 72%
18:00 +11°C° 0.3 mm 3 mps 746 mmHg 77%
19:00 +11°C° 0.2 mm 3 mps 746 mmHg 80%
20:00 +10°C° 0.2 mm 2 mps 746 mmHg 84%
21:00 +10°C° 0.2 mm 2 mps 747 mmHg 87%
22:00 +9°C° 0 mm 2 mps 747 mmHg 89%
23:00 +9°C° 0 mm 2 mps 747 mmHg 90%

Tomorrow, 17 April, Saturday

Time Temperature Precipitation Wind Pressure Humidity
00:00 +9°C° 0 mm 2 mps 747 mmHg 92%
01:00 +9°C° 0.5 mm 2 mps 746 mmHg 93%
02:00 +8°C° 0.5 mm 2 mps 746 mmHg 93%
03:00 +8°C° 0.5 mm 2 mps 746 mmHg 94%
04:00 +8°C° 0.1 mm 2 mps 747 mmHg 94%
05:00 +7°C° 0.1 mm 2 mps 747 mmHg 95%
06:00 +7°C° 0.1 mm 3 mps 747 mmHg 95%
07:00 +8°C° 0 mm 3 mps 747 mmHg 87%
08:00 +9°C° 0 mm 3 mps 747 mmHg 79%
09:00 +10°C° 0 mm 3 mps 748 mmHg 71%
10:00 +11°C° 0 mm 3 mps 748 mmHg 63%
11:00 +12°C° 0 mm 4 mps 748 mmHg 55%
12:00 +13°C° 0 mm 4 mps 748 mmHg 47%
13:00 +13°C° 0 mm 4 mps 748 mmHg 44%
14:00 +14°C° 0 mm 4 mps 748 mmHg 42%
15:00 +14°C° 0 mm 4 mps 748 mmHg 40%
16:00 +13°C° 0 mm 4 mps 748 mmHg 44%
17:00 +13°C° 0 mm 4 mps 748 mmHg 48%
18:00 +13°C° 0 mm 4 mps 748 mmHg 52%
19:00 +11°C° 0 mm 3 mps 748 mmHg 57%
20:00 +10°C° 0 mm 3 mps 748 mmHg 62%
21:00 +9°C° 0 mm 2 mps 748 mmHg 68%
22:00 +8°C° 0 mm 2 mps 748 mmHg 69%
23:00 +8°C° 0 mm 2 mps 748 mmHg 69%

Day after tomorrow, 18 April, Sunday

Time Temperature Precipitation Wind Pressure Humidity
00:00 +7°C° 0 mm 2 mps 748 mmHg 70%
01:00 +7°C° 0 mm 2 mps 748 mmHg 71%
02:00 +6°C° 0 mm 2 mps 748 mmHg 71%
03:00 +6°C° 0 mm 2 mps 748 mmHg 72%
04:00 +6°C° 0 mm 2 mps 748 mmHg 73%
05:00 +6°C° 0 mm 2 mps 748 mmHg 74%
06:00 +6°C° 0 mm 2 mps 748 mmHg 74%
07:00 +7°C° 0 mm 3 mps 748 mmHg 69%
08:00 +9°C° 0 mm 3 mps 748 mmHg 63%
09:00 +10°C° 0 mm 3 mps 747 mmHg 58%
10:00 +11°C° 0 mm 3 mps 747 mmHg 54%
11:00 +12°C° 0 mm 3 mps 747 mmHg 50%
12:00 +14°C° 0 mm 3 mps 747 mmHg 46%
13:00 +14°C° 0 mm 3 mps 747 mmHg 45%
14:00 +14°C° 0 mm 3 mps 746 mmHg 44%
15:00 +16°C° 0 mm 2 mps 746 mmHg 43%
16:00 +14°C° 0 mm 3 mps 746 mmHg 49%
17:00 +13°C° 0 mm 3 mps 746 mmHg 56%
18:00 +12°C° 0 mm 3 mps 746 mmHg 62%
19:00 +11°C° 0 mm 3 mps 746 mmHg 66%
20:00 +12°C° 0 mm 2 mps 746 mmHg 69%
21:00 +10°C° 0 mm 2 mps 746 mmHg 73%
22:00 +10°C° 0 mm 2 mps 746 mmHg 75%
23:00 +10°C° 0 mm 2 mps 745 mmHg 76%

19 April, Monday

Time Temperature Precipitation Wind Pressure Humidity
00:00 +10°C° 0 mm 2 mps 745 mmHg 78%
01:00 +9°C° 0 mm 2 mps 745 mmHg 81%
02:00 +9°C° 0 mm 3 mps 745 mmHg 84%
03:00 +9°C° 0 mm 3 mps 744 mmHg 87%
04:00 +9°C° 0.2 mm 3 mps 744 mmHg 89%
05:00 +9°C° 0.2 mm 3 mps 744 mmHg 91%
06:00 +9°C° 0.2 mm 3 mps 744 mmHg 93%
07:00 +10°C° 0.1 mm 4 mps 743 mmHg 93%
08:00 +10°C° 0.1 mm 4 mps 743 mmHg 93%
09:00 +10°C° 0.1 mm 4 mps 743 mmHg 94%
10:00 +11°C° 0.1 mm 4 mps 743 mmHg 93%
11:00 +11°C° 0.1 mm 4 mps 743 mmHg 92%
12:00 +12°C° 0.1 mm 3 mps 743 mmHg 92%
13:00 +13°C° 0 mm 3 mps 742 mmHg 87%
14:00 +14°C° 0 mm 4 mps 742 mmHg 82%
15:00 +15°C° 0 mm 4 mps 742 mmHg 77%
16:00 +14°C° 0 mm 4 mps 741 mmHg 82%
17:00 +14°C° 0 mm 4 mps 741 mmHg 86%
18:00 +13°C° 0 mm 4 mps 741 mmHg 91%
19:00 +13°C° 0.8 mm 4 mps 740 mmHg 93%
20:00 +12°C° 0.8 mm 5 mps 740 mmHg 94%
21:00 +12°C° 0.8 mm 5 mps 740 mmHg 96%
22:00 +11°C° 0.2 mm 6 mps 739 mmHg 94%
23:00 +11°C° 0.2 mm 6 mps 737 mmHg 93%

20 April, Tuesday

Time Temperature Precipitation Wind Pressure Humidity
00:00 +12°C° 0.2 mm 7 mps 736 mmHg 92%
01:00 +12°C° 1.4 mm 8 mps 736 mmHg 89%
02:00 +12°C° 1.4 mm 9 mps 735 mmHg 87%
03:00 +12°C° 1.4 mm 10 mps 734 mmHg 85%
04:00 +12°C° 0.2 mm 10 mps 734 mmHg 81%
05:00 +11°C° 0.2 mm 9 mps 734 mmHg 78%
06:00 +11°C° 0.2 mm 9 mps 734 mmHg 75%
07:00 +11°C° 0.7 mm 8 mps 734 mmHg 79%
08:00 +11°C° 0.7 mm 8 mps 734 mmHg 83%
09:00 +11°C° 0.7 mm 7 mps 735 mmHg 87%
10:00 +11°C° 0.9 mm 7 mps 735 mmHg 85%
11:00 +10°C° 0.9 mm 8 mps 736 mmHg 84%
12:00 +10°C° 0.9 mm 9 mps 736 mmHg 82%
13:00 +10°C° 0.3 mm 9 mps 737 mmHg 79%
14:00 +9°C° 0.3 mm 10 mps 737 mmHg 77%
15:00 +11°C° 0.3 mm 11 mps 737 mmHg 74%
16:00 +9°C° 0.1 mm 11 mps 738 mmHg 75%
17:00 +9°C° 0.1 mm 11 mps 738 mmHg 77%
18:00 +8°C° 0.1 mm 10 mps 739 mmHg 78%
19:00 +8°C° 0.1 mm 10 mps 740 mmHg 79%
20:00 +7°C° 0.1 mm 9 mps 741 mmHg 81%
21:00 +7°C° 0.1 mm 9 mps 741 mmHg 82%
22:00 +7°C° 0 mm 8 mps 742 mmHg 82%
23:00 +8°C° 0 mm 7 mps 743 mmHg 82%

21 April, Wednesday

Time Temperature Precipitation Wind Pressure Humidity
00:00 +8°C° 0 mm 6 mps 743 mmHg 81%
01:00 +7°C° 0 mm 6 mps 744 mmHg 86%
02:00 +6°C° 0 mm 5 mps 744 mmHg 90%
03:00 +5°C° 0 mm 5 mps 745 mmHg 94%
04:00 +5°C° 0 mm 4 mps 745 mmHg 94%
05:00 +5°C° 0 mm 4 mps 745 mmHg 94%
06:00 +5°C° 0 mm 3 mps 745 mmHg 94%
07:00 +8°C° 0 mm 3 mps 746 mmHg 87%
08:00 +8°C° 0 mm 4 mps 746 mmHg 80%
09:00 +10°C° 0 mm 4 mps 746 mmHg 74%
10:00 +12°C° 0 mm 4 mps 746 mmHg 67%
11:00 +13°C° 0 mm 5 mps 746 mmHg 61%
12:00 +14°C° 0 mm 5 mps 746 mmHg 55%
13:00 +14°C° 0 mm 5 mps 746 mmHg 55%
14:00 +14°C° 0 mm 6 mps 746 mmHg 55%
15:00 +14°C° 0 mm 6 mps 746 mmHg 55%
16:00 +14°C° 0 mm 5 mps 747 mmHg 57%
17:00 +14°C° 0 mm 5 mps 747 mmHg 59%
18:00 +13°C° 0 mm 4 mps 747 mmHg 61%
19:00 +12°C° 0 mm 3 mps 747 mmHg 65%
20:00 +11°C° 0 mm 3 mps 748 mmHg 70%
21:00 +10°C° 0 mm 2 mps 748 mmHg 74%
22:00 +9°C° 0 mm 2 mps 748 mmHg 75%
23:00 +10°C° 0 mm 1 mps 748 mmHg 75%
Show more